owner,sensor,date,latitude,longitude,vertical_datum,wind_speed,wind_to_direction,wind_speed_of_gust,qcFlag 
DISL,ioos:station:DISL:BSCA:1,2019-10-01T00:50:00Z,30.3288,-87.8293,0.0,2.28,201.1,-9999.0,'11111222,11111222,99999222' 
DISL,ioos:station:DISL:BSCA:1,2019-10-01T01:50:00Z,30.3288,-87.8293,0.0,1.57,219.6,-9999.0,'11111222,11111222,99999222' 
DISL,ioos:station:DISL:BSCA:1,2019-10-01T02:50:00Z,30.3288,-87.8293,0.0,1.14,207.6,-9999.0,'11111222,11111222,99999222' 
DISL,ioos:station:DISL:BSCA:1,2019-10-01T03:50:00Z,30.3288,-87.8293,0.0,1.31,173.2,-9999.0,'11111222,11111222,99999222' 
DISL,ioos:station:DISL:BSCA:1,2019-10-01T04:50:00Z,30.3288,-87.8293,0.0,1.17,49.62,-9999.0,'11111222,11111222,99999222' 
DISL,ioos:station:DISL:BSCA:1,2019-10-01T05:50:00Z,30.3288,-87.8293,0.0,1.27,63.03,-9999.0,'11111222,11111222,99999222' 
DISL,ioos:station:DISL:BSCA:1,2019-10-01T06:50:00Z,30.3288,-87.8293,0.0,1.42,60.18,-9999.0,'11111222,11111222,99999222' 
DISL,ioos:station:DISL:BSCA:1,2019-10-01T07:50:00Z,30.3288,-87.8293,0.0,1.29,52.83,-9999.0,'11111222,11111222,99999222' 
DISL,ioos:station:DISL:BSCA:1,2019-10-01T08:50:00Z,30.3288,-87.8293,0.0,1.42,50.04,-9999.0,'11111222,11111222,99999222' 
DISL,ioos:station:DISL:BSCA:1,2019-10-01T09:50:00Z,30.3288,-87.8293,0.0,2.0,37.19,-9999.0,'11111222,11111222,99999222' 
DISL,ioos:station:DISL:BSCA:1,2019-10-01T10:50:00Z,30.3288,-87.8293,0.0,3.04,12.1,-9999.0,'11111222,11111222,99999222' 
DISL,ioos:station:DISL:BSCA:1,2019-10-01T11:50:00Z,30.3288,-87.8293,0.0,3.76,16.58,-9999.0,'11111222,11111222,99999222' 
DISL,ioos:station:DISL:BSCA:1,2019-10-01T12:50:00Z,30.3288,-87.8293,0.0,4.05,22.82,-9999.0,'11111222,11111222,99999222' 
DISL,ioos:station:DISL:BSCA:1,2019-10-01T13:50:00Z,30.3288,-87.8293,0.0,4.33,29.89,-9999.0,'11111222,11111222,99999222' 
DISL,ioos:station:DISL:BSCA:1,2019-10-01T14:50:00Z,30.3288,-87.8293,0.0,3.28,12.48,-9999.0,'11111222,11111222,99999222' 
DISL,ioos:station:DISL:BSCA:1,2019-10-01T15:50:00Z,30.3288,-87.8293,0.0,2.54,28.55,-9999.0,'11111222,11111222,99999222' 
DISL,ioos:station:DISL:BSCA:1,2019-10-01T16:50:00Z,30.3288,-87.8293,0.0,0.71,306.1,-9999.0,'11111222,11111222,99999222' 
DISL,ioos:station:DISL:BSCA:1,2019-10-01T17:50:00Z,30.3288,-87.8293,0.0,4.28,289.8,-9999.0,'11111222,11111222,99999222' 
DISL,ioos:station:DISL:BSCA:1,2019-10-01T18:50:00Z,30.3288,-87.8293,0.0,2.48,253.4,-9999.0,'11111222,11111222,99999222' 
DISL,ioos:station:DISL:BSCA:1,2019-10-01T19:50:00Z,30.3288,-87.8293,0.0,2.9,218.6,-9999.0,'11111222,11111222,99999222' 
DISL,ioos:station:DISL:BSCA:1,2019-10-01T20:50:00Z,30.3288,-87.8293,0.0,3.21,175.6,-9999.0,'11111222,11111222,99999222' 
DISL,ioos:station:DISL:BSCA:1,2019-10-01T21:50:00Z,30.3288,-87.8293,0.0,2.4,198.3,-9999.0,'11111222,11111222,99999222' 
DISL,ioos:station:DISL:BSCA:1,2019-10-01T22:50:00Z,30.3288,-87.8293,0.0,4.0,178.3,-9999.0,'11111222,11111222,99999222' 
DISL,ioos:station:DISL:BSCA:1,2019-10-01T23:50:00Z,30.3288,-87.8293,0.0,3.42,182.8,-9999.0,'11111222,11111222,99999222' 
DISL,ioos:station:DISL:BSCA:1,2019-10-02T00:50:00Z,30.3288,-87.8293,0.0,4.49,177.4,-9999.0,'11111222,11111222,99999222' 
DISL,ioos:station:DISL:BSCA:1,2019-10-02T01:50:00Z,30.3288,-87.8293,0.0,4.07,179.3,-9999.0,'11111222,11111222,99999222' 
DISL,ioos:station:DISL:BSCA:1,2019-10-02T02:50:00Z,30.3288,-87.8293,0.0,3.56,175.1,-9999.0,'11111222,11111222,99999222' 
DISL,ioos:station:DISL:BSCA:1,2019-10-02T03:50:00Z,30.3288,-87.8293,0.0,3.24,176.1,-9999.0,'11111222,11111222,99999222' 
DISL,ioos:station:DISL:BSCA:1,2019-10-02T04:50:00Z,30.3288,-87.8293,0.0,2.65,192.9,-9999.0,'11111222,11111222,99999222' 
DISL,ioos:station:DISL:BSCA:1,2019-10-02T05:20:00Z,30.3288,-87.8293,0.0,1.99,191.6,-9999.0,'11111222,11111222,99999222' 
DISL,ioos:station:DISL:BSCA:1,2019-10-02T06:50:00Z,30.3288,-87.8293,0.0,1.76,49.49,-9999.0,'11111222,11111222,99999222' 
DISL,ioos:station:DISL:BSCA:1,2019-10-02T07:50:00Z,30.3288,-87.8293,0.0,1.95,39.99,-9999.0,'11111222,11111222,99999222' 
DISL,ioos:station:DISL:BSCA:1,2019-10-02T08:50:00Z,30.3288,-87.8293,0.0,2.64,46.57,-9999.0,'11111222,11111222,99999222' 
DISL,ioos:station:DISL:BSCA:1,2019-10-02T09:50:00Z,30.3288,-87.8293,0.0,3.4,53.9,-9999.0,'11111222,11111222,99999222' 
DISL,ioos:station:DISL:BSCA:1,2019-10-02T10:50:00Z,30.3288,-87.8293,0.0,3.41,59.66,-9999.0,'11111222,11111222,99999222' 
DISL,ioos:station:DISL:BSCA:1,2019-10-02T11:50:00Z,30.3288,-87.8293,0.0,3.4,53.09,-9999.0,'11111222,11111222,99999222' 
DISL,ioos:station:DISL:BSCA:1,2019-10-02T12:50:00Z,30.3288,-87.8293,0.0,4.22,45.2,-9999.0,'11111222,11111222,99999222' 
DISL,ioos:station:DISL:BSCA:1,2019-10-02T13:50:00Z,30.3288,-87.8293,0.0,4.29,52.78,-9999.0,'11111222,11111222,99999222' 
DISL,ioos:station:DISL:BSCA:1,2019-10-02T14:50:00Z,30.3288,-87.8293,0.0,4.38,46.57,-9999.0,'11111222,11111222,99999222' 
DISL,ioos:station:DISL:BSCA:1,2019-10-02T15:50:00Z,30.3288,-87.8293,0.0,3.02,74.34,-9999.0,'11111222,11111222,99999222' 
DISL,ioos:station:DISL:BSCA:1,2019-10-02T16:50:00Z,30.3288,-87.8293,0.0,2.63,121.5,-9999.0,'11111222,11111222,99999222' 
DISL,ioos:station:DISL:BSCA:1,2019-10-02T17:50:00Z,30.3288,-87.8293,0.0,5.53,157.7,-9999.0,'11111222,11111222,99999222' 
DISL,ioos:station:DISL:BSCA:1,2019-10-02T18:50:00Z,30.3288,-87.8293,0.0,7.53,159.7,-9999.0,'11111222,11111222,99999222' 
DISL,ioos:station:DISL:BSCA:1,2019-10-02T19:50:00Z,30.3288,-87.8293,0.0,5.91,162.8,-9999.0,'11111222,11111222,99999222' 
DISL,ioos:station:DISL:BSCA:1,2019-10-02T20:50:00Z,30.3288,-87.8293,0.0,4.71,157.9,-9999.0,'11111222,11111222,99999222' 
DISL,ioos:station:DISL:BSCA:1,2019-10-02T21:50:00Z,30.3288,-87.8293,0.0,3.88,171.5,-9999.0,'11111222,11111222,99999222' 
DISL,ioos:station:DISL:BSCA:1,2019-10-02T22:50:00Z,30.3288,-87.8293,0.0,4.38,166.2,-9999.0,'11111222,11111222,99999222' 
DISL,ioos:station:DISL:BSCA:1,2019-10-02T23:50:00Z,30.3288,-87.8293,0.0,4.07,177.6,-9999.0,'11111222,11111222,99999222' 
DISL,ioos:station:DISL:BSCA:1,2019-10-03T00:50:00Z,30.3288,-87.8293,0.0,4.17,178.8,-9999.0,'11111222,11111222,99999222' 
DISL,ioos:station:DISL:BSCA:1,2019-10-03T01:50:00Z,30.3288,-87.8293,0.0,3.45,183.1,-9999.0,'11111222,11111222,99999222' 
DISL,ioos:station:DISL:BSCA:1,2019-10-03T02:50:00Z,30.3288,-87.8293,0.0,3.16,175.9,-9999.0,'11111222,11111222,99999222' 
DISL,ioos:station:DISL:BSCA:1,2019-10-03T03:50:00Z,30.3288,-87.8293,0.0,2.59,182.3,-9999.0,'11111222,11111222,99999222' 
DISL,ioos:station:DISL:BSCA:1,2019-10-03T04:50:00Z,30.3288,-87.8293,0.0,1.77,175.9,-9999.0,'11111222,11111222,99999222' 
DISL,ioos:station:DISL:BSCA:1,2019-10-03T05:50:00Z,30.3288,-87.8293,0.0,3.28,179.9,-9999.0,'11111222,11111222,99999222' 
DISL,ioos:station:DISL:BSCA:1,2019-10-03T06:50:00Z,30.3288,-87.8293,0.0,2.29,197.1,-9999.0,'11111222,11111222,99999222' 
DISL,ioos:station:DISL:BSCA:1,2019-10-03T07:50:00Z,30.3288,-87.8293,0.0,1.95,31.81,-9999.0,'11111222,11111222,99999222' 
DISL,ioos:station:DISL:BSCA:1,2019-10-03T08:50:00Z,30.3288,-87.8293,0.0,2.28,33.37,-9999.0,'11111222,11111222,99999222' 
DISL,ioos:station:DISL:BSCA:1,2019-10-03T09:50:00Z,30.3288,-87.8293,0.0,1.91,23.17,-9999.0,'11111222,11111222,99999222' 
DISL,ioos:station:DISL:BSCA:1,2019-10-03T10:50:00Z,30.3288,-87.8293,0.0,2.94,12.92,-9999.0,'11111222,11111222,99999222' 
DISL,ioos:station:DISL:BSCA:1,2019-10-03T11:50:00Z,30.3288,-87.8293,0.0,3.85,22.82,-9999.0,'11111222,11111222,99999222' 
DISL,ioos:station:DISL:BSCA:1,2019-10-03T12:50:00Z,30.3288,-87.8293,0.0,3.85,18.09,-9999.0,'11111222,11111222,99999222' 
DISL,ioos:station:DISL:BSCA:1,2019-10-03T13:50:00Z,30.3288,-87.8293,0.0,3.63,14.48,-9999.0,'11111222,11111222,99999222' 
DISL,ioos:station:DISL:BSCA:1,2019-10-03T14:50:00Z,30.3288,-87.8293,0.0,3.64,358.0,-9999.0,'11111222,11111222,99999222' 
DISL,ioos:station:DISL:BSCA:1,2019-10-03T15:50:00Z,30.3288,-87.8293,0.0,2.05,298.7,-9999.0,'11111222,11111222,99999222' 
DISL,ioos:station:DISL:BSCA:1,2019-10-03T16:50:00Z,30.3288,-87.8293,0.0,2.86,292.0,-9999.0,'11111222,11111222,99999222' 
DISL,ioos:station:DISL:BSCA:1,2019-10-03T17:50:00Z,30.3288,-87.8293,0.0,4.31,275.9,-9999.0,'11111222,11111222,99999222' 
DISL,ioos:station:DISL:BSCA:1,2019-10-03T18:50:00Z,30.3288,-87.8293,0.0,2.62,256.9,-9999.0,'11111222,11111222,99999222' 
DISL,ioos:station:DISL:BSCA:1,2019-10-03T19:50:00Z,30.3288,-87.8293,0.0,3.44,220.1,-9999.0,'11111222,11111222,99999222' 
DISL,ioos:station:DISL:BSCA:1,2019-10-03T20:50:00Z,30.3288,-87.8293,0.0,3.92,205.6,-9999.0,'11111222,11111222,99999222' 
DISL,ioos:station:DISL:BSCA:1,2019-10-03T21:50:00Z,30.3288,-87.8293,0.0,3.31,205.4,-9999.0,'11111222,11111222,99999222' 
DISL,ioos:station:DISL:BSCA:1,2019-10-03T22:50:00Z,30.3288,-87.8293,0.0,3.56,203.8,-9999.0,'11111222,11111222,99999222' 
DISL,ioos:station:DISL:BSCA:1,2019-10-03T23:50:00Z,30.3288,-87.8293,0.0,3.25,210.2,-9999.0,'11111222,11111222,99999222' 
DISL,ioos:station:DISL:BSCA:1,2019-10-04T00:50:00Z,30.3288,-87.8293,0.0,3.21,216.7,-9999.0,'11111222,11111222,99999222' 
DISL,ioos:station:DISL:BSCA:1,2019-10-04T01:50:00Z,30.3288,-87.8293,0.0,3.41,202.9,-9999.0,'11111222,11111222,99999222' 
DISL,ioos:station:DISL:BSCA:1,2019-10-04T02:50:00Z,30.3288,-87.8293,0.0,2.88,217.3,-9999.0,'11111222,11111222,99999222' 
DISL,ioos:station:DISL:BSCA:1,2019-10-04T03:50:00Z,30.3288,-87.8293,0.0,2.85,195.4,-9999.0,'11111222,11111222,99999222' 
DISL,ioos:station:DISL:BSCA:1,2019-10-04T04:50:00Z,30.3288,-87.8293,0.0,3.6,187.8,-9999.0,'11111222,11111222,99999222' 
DISL,ioos:station:DISL:BSCA:1,2019-10-04T05:50:00Z,30.3288,-87.8293,0.0,3.67,195.4,-9999.0,'11111222,11111222,99999222' 
DISL,ioos:station:DISL:BSCA:1,2019-10-04T06:50:00Z,30.3288,-87.8293,0.0,2.71,208.5,-9999.0,'11111222,11111222,99999222' 
DISL,ioos:station:DISL:BSCA:1,2019-10-04T07:50:00Z,30.3288,-87.8293,0.0,2.68,277.5,-9999.0,'11111222,11111222,99999222' 
DISL,ioos:station:DISL:BSCA:1,2019-10-04T08:50:00Z,30.3288,-87.8293,0.0,2.07,322.2,-9999.0,'11111222,11111222,99999222' 
DISL,ioos:station:DISL:BSCA:1,2019-10-04T09:50:00Z,30.3288,-87.8293,0.0,1.3,50.97,-9999.0,'11111222,11111222,99999222' 
DISL,ioos:station:DISL:BSCA:1,2019-10-04T10:50:00Z,30.3288,-87.8293,0.0,1.73,38.79,-9999.0,'11111222,11111222,99999222' 
DISL,ioos:station:DISL:BSCA:1,2019-10-04T11:50:00Z,30.3288,-87.8293,0.0,1.44,7.019,-9999.0,'11111222,11111222,99999222' 
DISL,ioos:station:DISL:BSCA:1,2019-10-04T12:50:00Z,30.3288,-87.8293,0.0,1.75,42.8,-9999.0,'11111222,11111222,99999222' 
DISL,ioos:station:DISL:BSCA:1,2019-10-04T13:50:00Z,30.3288,-87.8293,0.0,1.63,10.6,-9999.0,'11111222,11111222,99999222' 
DISL,ioos:station:DISL:BSCA:1,2019-10-04T14:50:00Z,30.3288,-87.8293,0.0,1.19,314.6,-9999.0,'11111222,11111222,99999222' 
DISL,ioos:station:DISL:BSCA:1,2019-10-04T15:50:00Z,30.3288,-87.8293,0.0,1.93,252.5,-9999.0,'11111222,11111222,99999222' 
DISL,ioos:station:DISL:BSCA:1,2019-10-04T16:50:00Z,30.3288,-87.8293,0.0,2.82,236.6,-9999.0,'11111222,11111222,99999222' 
DISL,ioos:station:DISL:BSCA:1,2019-10-04T17:50:00Z,30.3288,-87.8293,0.0,2.59,242.7,-9999.0,'11111222,11111222,99999222' 
DISL,ioos:station:DISL:BSCA:1,2019-10-04T18:50:00Z,30.3288,-87.8293,0.0,2.95,213.7,-9999.0,'11111222,11111222,99999222' 
DISL,ioos:station:DISL:BSCA:1,2019-10-04T19:50:00Z,30.3288,-87.8293,0.0,4.25,203.4,-9999.0,'11111222,11111222,99999222' 
DISL,ioos:station:DISL:BSCA:1,2019-10-04T20:50:00Z,30.3288,-87.8293,0.0,4.78,203.1,-9999.0,'11111222,11111222,99999222' 
DISL,ioos:station:DISL:BSCA:1,2019-10-04T21:50:00Z,30.3288,-87.8293,0.0,5.19,200.8,-9999.0,'11111222,11111222,99999222' 
DISL,ioos:station:DISL:BSCA:1,2019-10-04T22:50:00Z,30.3288,-87.8293,0.0,4.68,207.4,-9999.0,'11111222,11111222,99999222' 
DISL,ioos:station:DISL:BSCA:1,2019-10-04T23:50:00Z,30.3288,-87.8293,0.0,4.49,216.5,-9999.0,'11111222,11111222,99999222' 
DISL,ioos:station:DISL:BSCA:1,2019-10-05T00:50:00Z,30.3288,-87.8293,0.0,4.59,227.5,-9999.0,'11111222,11111222,99999222' 
DISL,ioos:station:DISL:BSCA:1,2019-10-05T01:50:00Z,30.3288,-87.8293,0.0,3.69,280.2,-9999.0,'11111222,11111222,99999222' 
DISL,ioos:station:DISL:BSCA:1,2019-10-05T02:50:00Z,30.3288,-87.8293,0.0,4.46,293.7,-9999.0,'11111222,11111222,99999222' 
DISL,ioos:station:DISL:BSCA:1,2019-10-05T03:50:00Z,30.3288,-87.8293,0.0,4.39,272.9,-9999.0,'11111222,11111222,99999222' 
DISL,ioos:station:DISL:BSCA:1,2019-10-05T04:50:00Z,30.3288,-87.8293,0.0,3.22,11.67,-9999.0,'11111222,11111222,99999222' 
DISL,ioos:station:DISL:BSCA:1,2019-10-05T05:50:00Z,30.3288,-87.8293,0.0,1.76,40.81,-9999.0,'11111222,11111222,99999222' 
DISL,ioos:station:DISL:BSCA:1,2019-10-05T06:50:00Z,30.3288,-87.8293,0.0,3.04,22.73,-9999.0,'11111222,11111222,99999222' 
DISL,ioos:station:DISL:BSCA:1,2019-10-05T07:50:00Z,30.3288,-87.8293,0.0,1.99,60.59,-9999.0,'11111222,11111222,99999222' 
DISL,ioos:station:DISL:BSCA:1,2019-10-05T08:50:00Z,30.3288,-87.8293,0.0,1.9,85.5,-9999.0,'11111222,11111222,99999222' 
DISL,ioos:station:DISL:BSCA:1,2019-10-05T09:50:00Z,30.3288,-87.8293,0.0,2.34,79.02,-9999.0,'11111222,11111222,99999222' 
DISL,ioos:station:DISL:BSCA:1,2019-10-05T10:50:00Z,30.3288,-87.8293,0.0,3.56,61.75,-9999.0,'11111222,11111222,99999222' 
DISL,ioos:station:DISL:BSCA:1,2019-10-05T11:50:00Z,30.3288,-87.8293,0.0,3.93,46.54,-9999.0,'11111222,11111222,99999222' 
DISL,ioos:station:DISL:BSCA:1,2019-10-05T12:50:00Z,30.3288,-87.8293,0.0,3.37,72.6,-9999.0,'11111222,11111222,99999222' 
DISL,ioos:station:DISL:BSCA:1,2019-10-05T13:50:00Z,30.3288,-87.8293,0.0,3.03,62.23,-9999.0,'11111222,11111222,99999222' 
DISL,ioos:station:DISL:BSCA:1,2019-10-05T14:50:00Z,30.3288,-87.8293,0.0,2.6,102.9,-9999.0,'11111222,11111222,99999222' 
DISL,ioos:station:DISL:BSCA:1,2019-10-05T15:50:00Z,30.3288,-87.8293,0.0,3.71,140.0,-9999.0,'11111222,11111222,99999222' 
DISL,ioos:station:DISL:BSCA:1,2019-10-05T16:50:00Z,30.3288,-87.8293,0.0,5.4,151.8,-9999.0,'11111222,11111222,99999222' 
DISL,ioos:station:DISL:BSCA:1,2019-10-05T17:50:00Z,30.3288,-87.8293,0.0,5.73,150.7,-9999.0,'11111222,11111222,99999222' 
DISL,ioos:station:DISL:BSCA:1,2019-10-05T18:50:00Z,30.3288,-87.8293,0.0,5.04,160.3,-9999.0,'11111222,11111222,99999222' 
DISL,ioos:station:DISL:BSCA:1,2019-10-05T19:50:00Z,30.3288,-87.8293,0.0,5.88,158.0,-9999.0,'11111222,11111222,99999222' 
DISL,ioos:station:DISL:BSCA:1,2019-10-05T20:50:00Z,30.3288,-87.8293,0.0,5.73,166.0,-9999.0,'11111222,11111222,99999222' 
DISL,ioos:station:DISL:BSCA:1,2019-10-05T21:50:00Z,30.3288,-87.8293,0.0,4.82,151.4,-9999.0,'11111222,11111222,99999222' 
DISL,ioos:station:DISL:BSCA:1,2019-10-05T22:50:00Z,30.3288,-87.8293,0.0,4.84,153.5,-9999.0,'11111222,11111222,99999222' 
DISL,ioos:station:DISL:BSCA:1,2019-10-05T23:50:00Z,30.3288,-87.8293,0.0,3.6,154.9,-9999.0,'11111222,11111222,99999222' 
DISL,ioos:station:DISL:BSCA:1,2019-10-06T00:50:00Z,30.3288,-87.8293,0.0,3.15,144.3,-9999.0,'11111222,11111222,99999222' 
DISL,ioos:station:DISL:BSCA:1,2019-10-06T01:50:00Z,30.3288,-87.8293,0.0,2.31,68.67,-9999.0,'11111222,11111222,99999222' 
DISL,ioos:station:DISL:BSCA:1,2019-10-06T02:50:00Z,30.3288,-87.8293,0.0,3.2,36.23,-9999.0,'11111222,11111222,99999222' 
DISL,ioos:station:DISL:BSCA:1,2019-10-06T03:50:00Z,30.3288,-87.8293,0.0,3.26,49.15,-9999.0,'11111222,11111222,99999222' 
DISL,ioos:station:DISL:BSCA:1,2019-10-06T04:50:00Z,30.3288,-87.8293,0.0,2.38,43.1,-9999.0,'11111222,11111222,99999222' 
DISL,ioos:station:DISL:BSCA:1,2019-10-06T05:50:00Z,30.3288,-87.8293,0.0,3.59,42.3,-9999.0,'11111222,11111222,99999222' 
DISL,ioos:station:DISL:BSCA:1,2019-10-06T06:50:00Z,30.3288,-87.8293,0.0,4.01,39.32,-9999.0,'11111222,11111222,99999222' 
DISL,ioos:station:DISL:BSCA:1,2019-10-06T07:50:00Z,30.3288,-87.8293,0.0,4.76,55.37,-9999.0,'11111222,11111222,99999222' 
DISL,ioos:station:DISL:BSCA:1,2019-10-06T08:50:00Z,30.3288,-87.8293,0.0,5.23,51.22,-9999.0,'11111222,11111222,99999222' 
DISL,ioos:station:DISL:BSCA:1,2019-10-06T09:50:00Z,30.3288,-87.8293,0.0,5.47,58.18,-9999.0,'11111222,11111222,99999222' 
DISL,ioos:station:DISL:BSCA:1,2019-10-06T10:50:00Z,30.3288,-87.8293,0.0,5.68,50.51,-9999.0,'11111222,11111222,99999222' 
DISL,ioos:station:DISL:BSCA:1,2019-10-06T11:50:00Z,30.3288,-87.8293,0.0,6.12,56.24,-9999.0,'11111222,11111222,99999222' 
DISL,ioos:station:DISL:BSCA:1,2019-10-06T12:50:00Z,30.3288,-87.8293,0.0,9.66,133.5,-9999.0,'11111222,11111222,99999222' 
DISL,ioos:station:DISL:BSCA:1,2019-10-06T13:50:00Z,30.3288,-87.8293,0.0,6.63,121.5,-9999.0,'11111222,11111222,99999222' 
DISL,ioos:station:DISL:BSCA:1,2019-10-06T14:50:00Z,30.3288,-87.8293,0.0,4.24,104.5,-9999.0,'11111222,11111222,99999222' 
DISL,ioos:station:DISL:BSCA:1,2019-10-06T15:50:00Z,30.3288,-87.8293,0.0,4.28,70.13,-9999.0,'11111222,11111222,99999222' 
DISL,ioos:station:DISL:BSCA:1,2019-10-06T16:50:00Z,30.3288,-87.8293,0.0,5.33,82.9,-9999.0,'11111222,11111222,99999222' 
DISL,ioos:station:DISL:BSCA:1,2019-10-06T17:50:00Z,30.3288,-87.8293,0.0,5.09,80.5,-9999.0,'11111222,11111222,99999222' 
DISL,ioos:station:DISL:BSCA:1,2019-10-06T18:50:00Z,30.3288,-87.8293,0.0,4.76,95.9,-9999.0,'11111222,11111222,99999222' 
DISL,ioos:station:DISL:BSCA:1,2019-10-06T19:50:00Z,30.3288,-87.8293,0.0,5.21,98.3,-9999.0,'11111222,11111222,99999222' 
DISL,ioos:station:DISL:BSCA:1,2019-10-06T20:50:00Z,30.3288,-87.8293,0.0,4.23,100.0,-9999.0,'11111222,11111222,99999222' 
DISL,ioos:station:DISL:BSCA:1,2019-10-06T21:50:00Z,30.3288,-87.8293,0.0,3.05,89.3,-9999.0,'11111222,11111222,99999222' 
DISL,ioos:station:DISL:BSCA:1,2019-10-06T22:50:00Z,30.3288,-87.8293,0.0,2.79,65.85,-9999.0,'11111222,11111222,99999222' 
DISL,ioos:station:DISL:BSCA:1,2019-10-06T23:50:00Z,30.3288,-87.8293,0.0,1.64,109.2,-9999.0,'11111222,11111222,99999222' 
DISL,ioos:station:DISL:BSCA:1,2019-10-07T00:50:00Z,30.3288,-87.8293,0.0,2.01,84.2,-9999.0,'11111222,11111222,99999222' 
DISL,ioos:station:DISL:BSCA:1,2019-10-07T01:50:00Z,30.3288,-87.8293,0.0,2.86,39.33,-9999.0,'11111222,11111222,99999222' 
DISL,ioos:station:DISL:BSCA:1,2019-10-07T02:50:00Z,30.3288,-87.8293,0.0,3.51,37.04,-9999.0,'11111222,11111222,99999222' 
DISL,ioos:station:DISL:BSCA:1,2019-10-07T03:50:00Z,30.3288,-87.8293,0.0,3.95,47.68,-9999.0,'11111222,11111222,99999222' 
DISL,ioos:station:DISL:BSCA:1,2019-10-07T04:50:00Z,30.3288,-87.8293,0.0,4.31,37.19,-9999.0,'11111222,11111222,99999222' 
DISL,ioos:station:DISL:BSCA:1,2019-10-07T05:50:00Z,30.3288,-87.8293,0.0,3.68,34.02,-9999.0,'11111222,11111222,99999222' 
DISL,ioos:station:DISL:BSCA:1,2019-10-07T06:50:00Z,30.3288,-87.8293,0.0,4.46,34.28,-9999.0,'11111222,11111222,99999222' 
DISL,ioos:station:DISL:BSCA:1,2019-10-07T07:50:00Z,30.3288,-87.8293,0.0,7.53,132.6,-9999.0,'11111222,11111222,99999222' 
DISL,ioos:station:DISL:BSCA:1,2019-10-07T08:50:00Z,30.3288,-87.8293,0.0,1.79,44.97,-9999.0,'11111222,11111222,99999222' 
DISL,ioos:station:DISL:BSCA:1,2019-10-07T09:50:00Z,30.3288,-87.8293,0.0,2.71,57.86,-9999.0,'11111222,11111222,99999222' 
DISL,ioos:station:DISL:BSCA:1,2019-10-07T10:50:00Z,30.3288,-87.8293,0.0,4.36,44.65,-9999.0,'11111222,11111222,99999222' 
DISL,ioos:station:DISL:BSCA:1,2019-10-07T11:50:00Z,30.3288,-87.8293,0.0,4.35,49.42,-9999.0,'11111222,11111222,99999222' 
DISL,ioos:station:DISL:BSCA:1,2019-10-07T12:50:00Z,30.3288,-87.8293,0.0,5.57,38.04,-9999.0,'11111222,11111222,99999222' 
DISL,ioos:station:DISL:BSCA:1,2019-10-07T18:50:00Z,30.3288,-87.8293,0.0,5.38,293.4,-9999.0,'11111222,11111222,99999222' 
DISL,ioos:station:DISL:BSCA:1,2019-10-07T19:50:00Z,30.3288,-87.8293,0.0,2.99,221.7,-9999.0,'11111222,11111222,99999222' 
DISL,ioos:station:DISL:BSCA:1,2019-10-07T20:50:00Z,30.3288,-87.8293,0.0,3.27,162.1,-9999.0,'11111222,11111222,99999222' 
DISL,ioos:station:DISL:BSCA:1,2019-10-07T21:50:00Z,30.3288,-87.8293,0.0,4.57,106.8,-9999.0,'11111222,11111222,99999222' 
DISL,ioos:station:DISL:BSCA:1,2019-10-07T22:50:00Z,30.3288,-87.8293,0.0,3.29,63.08,-9999.0,'11111222,11111222,99999222' 
DISL,ioos:station:DISL:BSCA:1,2019-10-07T23:50:00Z,30.3288,-87.8293,0.0,3.13,50.31,-9999.0,'11111222,11111222,99999222' 
DISL,ioos:station:DISL:BSCA:1,2019-10-08T00:50:00Z,30.3288,-87.8293,0.0,3.02,35.37,-9999.0,'11111222,11111222,99999222' 
DISL,ioos:station:DISL:BSCA:1,2019-10-08T01:50:00Z,30.3288,-87.8293,0.0,3.12,20.44,-9999.0,'11111222,11111222,99999222' 
DISL,ioos:station:DISL:BSCA:1,2019-10-08T02:50:00Z,30.3288,-87.8293,0.0,4.69,358.0,-9999.0,'11111222,11111222,99999222' 
DISL,ioos:station:DISL:BSCA:1,2019-10-08T03:50:00Z,30.3288,-87.8293,0.0,6.21,11.6,-9999.0,'11111222,11111222,99999222' 
DISL,ioos:station:DISL:BSCA:1,2019-10-08T04:50:00Z,30.3288,-87.8293,0.0,5.38,18.37,-9999.0,'11111222,11111222,99999222' 
DISL,ioos:station:DISL:BSCA:1,2019-10-08T05:50:00Z,30.3288,-87.8293,0.0,7.28,18.92,-9999.0,'11111222,11111222,99999222' 
DISL,ioos:station:DISL:BSCA:1,2019-10-08T06:50:00Z,30.3288,-87.8293,0.0,6.91,26.0,-9999.0,'11111222,11111222,99999222' 
DISL,ioos:station:DISL:BSCA:1,2019-10-08T07:50:00Z,30.3288,-87.8293,0.0,6.96,27.88,-9999.0,'11111222,11111222,99999222' 
DISL,ioos:station:DISL:BSCA:1,2019-10-08T08:50:00Z,30.3288,-87.8293,0.0,6.6,33.31,-9999.0,'11111222,11111222,99999222' 
DISL,ioos:station:DISL:BSCA:1,2019-10-08T09:50:00Z,30.3288,-87.8293,0.0,6.5,35.79,-9999.0,'11111222,11111222,99999222' 
DISL,ioos:station:DISL:BSCA:1,2019-10-08T10:50:00Z,30.3288,-87.8293,0.0,6.17,31.48,-9999.0,'11111222,11111222,99999222' 
DISL,ioos:station:DISL:BSCA:1,2019-10-08T11:50:00Z,30.3288,-87.8293,0.0,7.41,28.3,-9999.0,'11111222,11111222,99999222' 
DISL,ioos:station:DISL:BSCA:1,2019-10-08T12:50:00Z,30.3288,-87.8293,0.0,7.41,33.23,-9999.0,'11111222,11111222,99999222' 
DISL,ioos:station:DISL:BSCA:1,2019-10-08T13:50:00Z,30.3288,-87.8293,0.0,6.99,25.76,-9999.0,'11111222,11111222,99999222' 
DISL,ioos:station:DISL:BSCA:1,2019-10-08T14:50:00Z,30.3288,-87.8293,0.0,6.42,17.23,-9999.0,'11111222,11111222,99999222' 
DISL,ioos:station:DISL:BSCA:1,2019-10-08T15:50:00Z,30.3288,-87.8293,0.0,4.4,28.67,-9999.0,'11111222,11111222,99999222' 
DISL,ioos:station:DISL:BSCA:1,2019-10-08T16:50:00Z,30.3288,-87.8293,0.0,3.76,333.4,-9999.0,'11111222,11111222,99999222' 
DISL,ioos:station:DISL:BSCA:1,2019-10-08T17:50:00Z,30.3288,-87.8293,0.0,4.8,295.6,-9999.0,'11111222,11111222,99999222' 
DISL,ioos:station:DISL:BSCA:1,2019-10-08T18:50:00Z,30.3288,-87.8293,0.0,7.34,306.0,-9999.0,'11111222,11111222,99999222' 
DISL,ioos:station:DISL:BSCA:1,2019-10-08T19:50:00Z,30.3288,-87.8293,0.0,7.44,309.0,-9999.0,'11111222,11111222,99999222' 
DISL,ioos:station:DISL:BSCA:1,2019-10-08T20:50:00Z,30.3288,-87.8293,0.0,6.25,302.4,-9999.0,'11111222,11111222,99999222' 
DISL,ioos:station:DISL:BSCA:1,2019-10-08T21:50:00Z,30.3288,-87.8293,0.0,5.69,313.8,-9999.0,'11111222,11111222,99999222' 
DISL,ioos:station:DISL:BSCA:1,2019-10-08T22:50:00Z,30.3288,-87.8293,0.0,3.94,290.3,-9999.0,'11111222,11111222,99999222' 
DISL,ioos:station:DISL:BSCA:1,2019-10-08T23:50:00Z,30.3288,-87.8293,0.0,4.16,322.7,-9999.0,'11111222,11111222,99999222' 
DISL,ioos:station:DISL:BSCA:1,2019-10-09T00:50:00Z,30.3288,-87.8293,0.0,3.64,348.7,-9999.0,'11111222,11111222,99999222' 
DISL,ioos:station:DISL:BSCA:1,2019-10-09T01:50:00Z,30.3288,-87.8293,0.0,3.37,354.0,-9999.0,'11111222,11111222,99999222' 
DISL,ioos:station:DISL:BSCA:1,2019-10-09T02:50:00Z,30.3288,-87.8293,0.0,5.11,3.266,-9999.0,'11111222,11111222,99999222' 
DISL,ioos:station:DISL:BSCA:1,2019-10-09T03:50:00Z,30.3288,-87.8293,0.0,4.52,6.998,-9999.0,'11111222,11111222,99999222' 
DISL,ioos:station:DISL:BSCA:1,2019-10-09T04:50:00Z,30.3288,-87.8293,0.0,5.18,17.89,-9999.0,'11111222,11111222,99999222' 
DISL,ioos:station:DISL:BSCA:1,2019-10-09T05:50:00Z,30.3288,-87.8293,0.0,5.36,31.77,-9999.0,'11111222,11111222,99999222' 
DISL,ioos:station:DISL:BSCA:1,2019-10-09T06:50:00Z,30.3288,-87.8293,0.0,5.63,30.9,-9999.0,'11111222,11111222,99999222' 
DISL,ioos:station:DISL:BSCA:1,2019-10-09T07:50:00Z,30.3288,-87.8293,0.0,6.03,32.57,-9999.0,'11111222,11111222,99999222' 
DISL,ioos:station:DISL:BSCA:1,2019-10-09T08:50:00Z,30.3288,-87.8293,0.0,6.15,25.98,-9999.0,'11111222,11111222,99999222' 
DISL,ioos:station:DISL:BSCA:1,2019-10-09T09:50:00Z,30.3288,-87.8293,0.0,5.28,21.76,-9999.0,'11111222,11111222,99999222' 